[[{"header":{"parameterUnit":"m.s-1","parameterCategory":1,"la1":30.2991,"la2":30.254,"lo1":-89.0895,"lo2":-89.0444,"dy":0.0017,"dx":0.0017,"nx":28,"ny":28,"refTime":"2025-01-17T09:00:00:Z","depth":0,"parameterNumber":2,"parameterNumberName":"U-component_of_WINDS"},"data":[0,0,0,0,0,0,0,0,0,0,0,0,0,0,0,0,0,0,0,0,0,0,0,0,0,0,0,0,0,0,0,0,0,0,0,0,0,0,0,0,0,0,0,0,0,0,0,0,0,0,0,0,0,0,0,0,0,0,0.7356,0.7356,0,0.7359,0.7359,0.736,0.7314,0.7313,0.7311,0.731,0.7315,0.7316,0.7317,0,0,0,0,0,0,0,0,0,0,0,0,0,0.7313,0.7314,0.7356,0.7356,0.7356,0.7359,0.7359,0.736,0.7314,0.7312,0.7311,0.731,0.7314,0.7316,0.7317,0,0,0,0,0,0,0,0,0,0,0,0,0,0.7326,0.7315,0.7356,0.7334,0.7332,0.7359,0.7359,0.736,0.7314,0.7312,0.7311,0.7309,0.7314,0.7316,0.7317,0.7367,0,0,0.7323,0.7324,0,0,0,0,0,0,0,0,0.7325,0.7327,0.7337,0.7336,0.7333,0.7334,0.7346,0.7362,0.7315,0.7321,0.731,0.7308,0.7323,0.7324,0.7329,0.7367,0.7367,0.7324,0.7325,0.7326,0.7326,0,0,0,0,0,0,0,0.7324,0.7327,0.7358,0.7337,0.7335,0.7325,0.7324,0.7349,0.7332,0.732,0.7317,0.7318,0.7321,0.7327,0.7328,0.7367,0.7323,0.7325,0.7326,0.7327,0.745,0.7452,0,0,0,0,0,0,0.7326,0.7327,0.7357,0.7358,0.7325,0.7327,0.7327,0.7336,0.7332,0.733,0.732,0.7316,0.7324,0.7326,0.7328,0.7388,0.7326,0.7327,0.7328,0.7448,0.745,0.7452,0,0,0,0,0,0,0.7325,0.7329,0.7357,0.7341,0.7344,0.733,0.734,0.7337,0.7342,0.7331,0.7328,0.7328,0.7323,0.7326,0.7358,0.7388,0.7328,0.733,0.7445,0.7448,0.7451,0.7507,0,0,0,0,0,0,0.7324,0.7329,0.7347,0.7342,0.7345,0.7387,0.7342,0.7338,0.7346,0.7341,0.7339,0.7336,0.7322,0.7356,0.736,0.7389,0.7331,0.7442,0.7447,0.745,0.7503,0.7512,0.752,0,0,0,0,0,0.7323,0.7362,0.7348,0.7352,0.7367,0.7388,0.739,0.7372,0.7348,0.7367,0.736,0.7337,0.7383,0.7359,0.7364,0.7394,0.744,0.7445,0.745,0.7499,0.751,0.752,0,0,0,0,0,0,0.7371,0.7361,0.7346,0.7384,0.7388,0.738,0.7403,0.7384,0.7394,0.739,0.7367,0.7367,0.7404,0.7402,0.7375,0.7443,0.7408,0.7414,0.7444,0.7454,0.7462,0.7463,0.7333,0,0,0,0,0,0.7387,0.7404,0.7394,0.743,0.7432,0.7418,0.7426,0.7412,0.7415,0.7416,0.7411,0.7415,0.7431,0.7442,0.7456,0.7502,0.7502,0.7525,0.7534,0.7541,0.7547,0.7574,0.7585,0.7468,0.7468,0.7468,0,0,0.7418,0.7415,0.7427,0.7439,0.744,0.746,0.7419,0.7441,0.7456,0.7419,0.7451,0.7448,0.7451,0.7491,0.7508,0.749,0.7579,0.7547,0.7552,0.7555,0.758,0.7591,0.7601,0.7471,0.747,0.747,0,0,0.7487,0.7485,0.7515,0.7517,0.7519,0.751,0.7517,0.7513,0.751,0.7541,0.7515,0.7532,0.7559,0.7564,0.7569,0.7641,0.7621,0.7646,0.7692,0.7718,0.7728,0.7736,0.7764,0.7775,0.7652,0.7652,0.7652,0,0.7526,0.7554,0.7534,0.7558,0.7566,0.7533,0.7565,0.7568,0.7575,0.7581,0.756,0.7595,0.7595,0.7637,0.7655,0.766,0.7669,0.7647,0.7728,0.7736,0.7743,0.777,0.7781,0.7655,0.7655,0.7655,0.7654,0,0.7604,0.7624,0.7649,0.7657,0.7666,0.7695,0.7679,0.7692,0.7677,0.767,0.7704,0.7702,0.7716,0.7725,0.771,0.7766,0.7755,0.7731,0.7696,0.7758,0.7783,0.7793,0.766,0.7659,0.7658,0.7657,0,0,0.7703,0.77,0.771,0.7714,0.7715,0.7731,0.7758,0.7772,0.7785,0.779,0.7814,0.7839,0.7818,0.7824,0.781,0.7833,0.7895,0.7807,0.7807,0.7826,0.7959,0.7979,0.7991,0.788,0.7882,0.7884,0.796,0,0.7772,0.7819,0.7802,0.785,0.787,0.784,0.7865,0.7868,0.7863,0.788,0.7873,0.7893,0.7862,0.7866,0.7887,0.7883,0.7921,0.7876,0.7905,0.7906,0.7908,0.8004,0.8024,0.8096,0.7969,0.7971,0.7972,0,0.7859,0.7869,0.792,0.7919,0.7927,0.7949,0.7962,0.7977,0.7982,0.7976,0.7985,0.7966,0.7995,0.7958,0.7999,0.7969,0.7979,0.7979,0.7981,0.7985,0.7945,0.8013,0.8118,0.813,0.7987,0.7986,0.7985,0,0.793,0.7956,0.799,0.7995,0.7994,0.8011,0.8011,0.8014,0.8024,0.8035,0.8042,0.8057,0.8065,0.8077,0.8064,0.8038,0.8108,0.8069,0.8106,0.8107,0.8124,0.8124,0.8236,0.8127,0.8126,0.8126,0.8126,0,0.801,0.8043,0.8023,0.8044,0.8081,0.8061,0.8098,0.8096,0.8098,0.812,0.8094,0.8115,0.8095,0.8115,0.8105,0.8142,0.8145,0.8143,0.814,0.8147,0.8148,0.8155,0.8151,0.8129,0.8128,0.8128,0.8127,0,0.8096,0.8083,0.812,0.8116,0.8117,0.8144,0.8142,0.8163,0.8155,0.8183,0.8189,0.8178,0.82,0.8188,0.821,0.8203,0.8252,0.8241,0.8251,0.8249,0.8288,0.8286,0.8411,0.8428,0.8305,0.8307,0.8308,0,0.8149,0.8174,0.8174,0.8187,0.8189,0.8209,0.822,0.8202,0.8215,0.8223,0.8243,0.8263,0.8278,0.8315,0.831,0.8328,0.8319,0.8361,0.8321,0.8328,0.8323,0.8323,0.8327,0.837,0.8372,0.8373,0.8374,0,0.8246,0.8239,0.8255,0.827,0.8284,0.8295,0.8304,0.8316,0.8298,0.8313,0.8336,0.8348,0.8371,0.8392,0.8408,0.841,0.839,0.8386,0.8396,0.8405,0.8411,0.8411,0.8276,0.8384,0.8383,0.8382,0.8382,0.8381,0.8319,0.8341,0.8345,0.8365,0.837,0.8379,0.8399,0.8395,0.8413,0.8431,0.8419,0.8446,0.8452,0.8471,0.8476,0.8498,0.8481,0.8495,0.8499,0.8504,0.851,0.8405,0.85,0.85,0.85,0.85,0.8499,0,0.8417,0.8419,0.8437,0.8451,0.8467,0.8445,0.8455,0.847,0.8495,0.8501,0.8517,0.8544,0.8565,0.8562,0.8582,0.86,0.8592,0.8606,0.8606,0.8608,0.8523,0.8514,0.8613,0.8613,0.8613,0.8613,0.8613,0.8613,0.847,0.8507,0.8501,0.8541,0.8542,0.8568,0.8576,0.8585,0.8591,0.8623,0.864,0.8637,0.8641,0.8661,0.868,0.8679,0.8688,0.8707,0.8703,0.8624,0.8613,0.8602,0.8594,0.8708,0.8708,0.8786,0.8787,0.8787]},{"header":{"parameterUnit":"m.s-1","parameterCategory":1,"la1":30.2991,"la2":30.254,"lo1":-89.0895,"lo2":-89.0444,"dy":0.0017,"dx":0.0017,"nx":28,"ny":28,"refTime":"2025-01-17T09:00:00:Z","depth":0,"parameterNumber":3,"parameterNumberName":"V-component_of_WINDS"},"data":[0,0,0,0,0,0,0,0,0,0,0,0,0,0,0,0,0,0,0,0,0,0,0,0,0,0,0,0,0,0,0,0,0,0,0,0,0,0,0,0,0,0,0,0,0,0,0,0,0,0,0,0,0,0,0,0,0,0,-1.015,-1.0151,0,-1.0246,-1.0247,-1.0248,-1.0297,-1.0297,-1.0297,-1.0297,-1.0392,-1.0395,-1.0397,0,0,0,0,0,0,0,0,0,0,0,0,0,-1.0006,-1.0009,-1.015,-1.0151,-1.0153,-1.0246,-1.0247,-1.0249,-1.0297,-1.0297,-1.0297,-1.0297,-1.0391,-1.0394,-1.0397,0,0,0,0,0,0,0,0,0,0,0,0,0,-1.0082,-1.0009,-1.015,-1.0188,-1.0192,-1.0246,-1.0247,-1.0249,-1.0297,-1.0297,-1.0297,-1.0297,-1.039,-1.0394,-1.0398,-1.042,0,0,-1.0409,-1.0411,0,0,0,0,0,0,0,0,-1.0078,-1.0087,-1.0181,-1.0185,-1.019,-1.026,-1.0232,-1.0306,-1.0297,-1.0257,-1.0297,-1.0297,-1.0348,-1.0355,-1.0373,-1.0424,-1.0428,-1.041,-1.0412,-1.0414,-1.0415,0,0,0,0,0,0,0,-1.0072,-1.0083,-1.0188,-1.0182,-1.0188,-1.0199,-1.021,-1.0246,-1.0301,-1.026,-1.0264,-1.0275,-1.035,-1.0369,-1.0376,-1.043,-1.041,-1.0413,-1.0415,-1.0417,-1.0504,-1.0504,0,0,0,0,0,0,-1.0061,-1.0079,-1.0185,-1.0191,-1.0133,-1.0202,-1.0214,-1.0237,-1.0301,-1.031,-1.0275,-1.0277,-1.0363,-1.0371,-1.0379,-1.0409,-1.0414,-1.0417,-1.0419,-1.0504,-1.0504,-1.0504,0,0,0,0,0,0,-1.0058,-1.007,-1.0181,-1.0136,-1.0151,-1.0204,-1.023,-1.0239,-1.0258,-1.0312,-1.0321,-1.0284,-1.0363,-1.0374,-1.041,-1.0413,-1.0419,-1.0422,-1.0504,-1.0504,-1.0504,-1.047,0,0,0,0,0,0,-1.0054,-1.0069,-1.0078,-1.0136,-1.0153,-1.0211,-1.023,-1.0241,-1.0265,-1.0268,-1.0323,-1.0332,-1.0364,-1.0404,-1.0413,-1.0419,-1.0425,-1.0504,-1.0504,-1.0504,-1.0471,-1.0469,-1.0467,0,0,0,0,0,-1.0048,-1.0064,-1.0079,-1.0091,-1.0166,-1.0211,-1.0221,-1.0258,-1.0265,-1.0274,-1.0309,-1.033,-1.0411,-1.0407,-1.0418,-1.0425,-1.0504,-1.0504,-1.0504,-1.0472,-1.0469,-1.0467,0,0,0,0,0,0,-1.0005,-1.0072,-1.0089,-1.0124,-1.0162,-1.0219,-1.0232,-1.0254,-1.029,-1.0291,-1.0335,-1.0347,-1.0379,-1.0405,-1.0399,-1.0449,-1.046,-1.0462,-1.0431,-1.0429,-1.0427,-1.042,-1.0428,0,0,0,0,0,-1.0,-1.0031,-1.0088,-1.0113,-1.0131,-1.0178,-1.0199,-1.0225,-1.0265,-1.0281,-1.0318,-1.0355,-1.0389,-1.0411,-1.0445,-1.0475,-1.0487,-1.0485,-1.0483,-1.0481,-1.0482,-1.05,-1.05,-1.0505,-1.0505,-1.0505,0,0,-0.9989,-1.0029,-1.0046,-1.0106,-1.0138,-1.0168,-1.0191,-1.0223,-1.0246,-1.0285,-1.0322,-1.035,-1.0395,-1.0428,-1.0444,-1.0451,-1.0484,-1.0481,-1.0479,-1.0482,-1.05,-1.05,-1.0499,-1.0505,-1.0505,-1.0505,0,0,-0.9984,-1.0018,-1.0043,-1.0075,-1.0124,-1.0155,-1.0161,-1.0215,-1.0236,-1.0273,-1.0303,-1.0331,-1.0389,-1.0419,-1.0442,-1.045,-1.0471,-1.0459,-1.0449,-1.0466,-1.0466,-1.0466,-1.0468,-1.0469,-1.0461,-1.0461,-1.0461,0,-0.9964,-1.0013,-1.0053,-1.0084,-1.0108,-1.0146,-1.0172,-1.02,-1.0257,-1.0273,-1.0279,-1.0353,-1.0385,-1.0426,-1.0428,-1.0445,-1.0453,-1.0453,-1.0463,-1.0463,-1.0463,-1.0466,-1.0467,-1.0459,-1.0459,-1.0459,-1.046,0,-0.9986,-1.0019,-1.0033,-1.0088,-1.0115,-1.0142,-1.0186,-1.0208,-1.0231,-1.0261,-1.0299,-1.0339,-1.0382,-1.0394,-1.0416,-1.0438,-1.0441,-1.0454,-1.0466,-1.0461,-1.0464,-1.0466,-1.0457,-1.0457,-1.0458,-1.0458,0,0,-0.9957,-1.0034,-1.0038,-1.0064,-1.012,-1.0146,-1.0175,-1.0218,-1.0236,-1.0274,-1.0299,-1.0347,-1.036,-1.0386,-1.0412,-1.0427,-1.0431,-1.0439,-1.0441,-1.0436,-1.0457,-1.0446,-1.0447,-1.0445,-1.0445,-1.0446,-1.0453,0,-0.9961,-1.0015,-1.0052,-1.0092,-1.0123,-1.0159,-1.0185,-1.0221,-1.025,-1.028,-1.0312,-1.0346,-1.036,-1.0376,-1.0393,-1.0427,-1.0435,-1.0427,-1.0468,-1.0469,-1.0456,-1.0449,-1.0438,-1.0443,-1.0455,-1.0455,-1.0456,0,-0.9972,-1.001,-1.0053,-1.0106,-1.012,-1.0142,-1.0185,-1.0213,-1.0256,-1.0276,-1.0305,-1.0332,-1.0363,-1.0372,-1.0416,-1.0409,-1.0428,-1.0447,-1.0448,-1.0454,-1.0462,-1.0454,-1.0446,-1.0447,-1.0458,-1.0458,-1.0458,0,-0.9947,-1.0008,-1.0042,-1.0063,-1.0125,-1.014,-1.0167,-1.0209,-1.0233,-1.027,-1.0285,-1.0325,-1.0346,-1.0376,-1.0413,-1.0416,-1.0453,-1.0464,-1.047,-1.0469,-1.0476,-1.0476,-1.0471,-1.0488,-1.0488,-1.0488,-1.0488,0,-0.9947,-0.9972,-1.0032,-1.0052,-1.0081,-1.0123,-1.015,-1.018,-1.0217,-1.0244,-1.0277,-1.0302,-1.0349,-1.0378,-1.0407,-1.0439,-1.0449,-1.0465,-1.0473,-1.0463,-1.046,-1.0476,-1.0476,-1.0489,-1.0489,-1.0488,-1.0488,0,-0.9924,-0.9965,-1.0004,-1.006,-1.0075,-1.0094,-1.0142,-1.0163,-1.0194,-1.0227,-1.0237,-1.0286,-1.0323,-1.0362,-1.0412,-1.0432,-1.0462,-1.0472,-1.0448,-1.0452,-1.0456,-1.0455,-1.0461,-1.0464,-1.0479,-1.0479,-1.0478,0,-0.9921,-0.9941,-1.0,-1.0021,-1.0047,-1.008,-1.0104,-1.0146,-1.017,-1.022,-1.0235,-1.0275,-1.0309,-1.0366,-1.0405,-1.0443,-1.0455,-1.0454,-1.0461,-1.045,-1.0455,-1.0453,-1.0455,-1.0452,-1.0452,-1.0451,-1.0451,0,-0.9912,-0.9932,-0.9966,-1.0008,-1.0036,-1.0071,-1.0107,-1.0122,-1.0171,-1.0196,-1.0234,-1.0261,-1.0312,-1.0351,-1.0394,-1.0421,-1.0444,-1.0449,-1.0452,-1.0442,-1.0427,-1.0436,-1.0443,-1.0449,-1.0449,-1.0449,-1.0449,-1.0449,-0.99,-0.9919,-0.9964,-1.0001,-1.0033,-1.0065,-1.0088,-1.0123,-1.0156,-1.0201,-1.0224,-1.0262,-1.0304,-1.0365,-1.0391,-1.0421,-1.0428,-1.0433,-1.0434,-1.0435,-1.0432,-1.0422,-1.0429,-1.0429,-1.0429,-1.0429,-1.043,0,-0.9893,-0.9923,-0.9957,-1.0007,-1.0036,-1.0056,-1.0097,-1.012,-1.0153,-1.0191,-1.0224,-1.0268,-1.0306,-1.0348,-1.0388,-1.0404,-1.0416,-1.0413,-1.0413,-1.0418,-1.0424,-1.0417,-1.0403,-1.0403,-1.0403,-1.0403,-1.0403,-1.0403,-0.9892,-0.9927,-0.9951,-1.0002,-1.0032,-1.0071,-1.0092,-1.0122,-1.0153,-1.0201,-1.0233,-1.026,-1.03,-1.0343,-1.0379,-1.039,-1.0403,-1.0398,-1.0412,-1.0416,-1.0418,-1.042,-1.0414,-1.04,-1.04,-1.0405,-1.0405,-1.0405]}]]